W0WYL-13 Weather Reports


time (UTC)temp
F
wind
direction
speed
knots
gust
knots
rain 1hr
in
rain 24hr
in
rain mn
in
humidity
%
barometer
mb
20260906173516 75 94 0.9 5.2 0.00 0.00 0.00 86 1019.4
20260906172028 75 131 0.9 5.2 0.00 0.00 0.00 87 1019.5
20260906170519 75 149 0.9 6.1 0.00 0.00 0.00 86 1019.7
20260906165051 75 137 0.9 5.2 0.00 0.00 0.00 85 1020.0
20260906163523 78 166 0.9 6.1 0.00 0.00 0.00 81 1019.9
20260906162035 78 166 0.9 5.2 0.00 0.00 0.00 81 1019.8
20260906160527 78 118 0.9 7.0 0.00 0.00 0.00 82 1019.9
20260906155019 79 131 0.9 5.2 0.00 0.00 0.00 81 1020.0
20260906153531 79 163 0.9 5.2 0.00 0.00 0.00 81 1020.0
20260906152023 79 130 0.9 5.2 0.00 0.00 0.00 81 1020.0
20260906150516 76 115 0.9 5.2 0.00 0.00 0.00 84 1020.0
20260906145028 76 153 0.9 6.1 0.00 0.00 0.00 86 1020.0
20260906143521 75 162 0.0 1.7 0.00 0.00 0.00 87 1019.9
20260906142034 75 128 0.9 5.2 0.00 0.00 0.00 87 1020.0
20260906140525 74 144 0.0 1.7 0.00 0.00 0.00 89 1019.8
20260906135017 72 117 0.0 1.7 0.00 0.00 0.00 92 1019.9
20260906133529 72 0.0 0.0 0.00 0.00 0.00 92 1019.7
20260906132022 71 147 0.0 2.6 0.00 0.00 0.00 94 1019.6
20260906130534 70 0.0 0.0 0.00 0.00 0.00 96 1019.4
20260906125025 70 0.0 0.0 0.00 0.00 0.00 96 1019.5
20260906123517 69 0.0 0.0 0.00 0.00 0.00 99 1019.7
20260906122029 67 0.0 0.0 0.00 0.00 0.00 99 1019.4
20260906120521 66 0.0 0.0 0.00 0.00 0.00 99 1019.4
20260906115033 66 0.0 0.0 0.00 0.00 0.00 99 1019.3
20260906113525 66 0.0 0.0 0.00 0.00 0.00 99 1019.2
20260906112017 67 0.0 0.0 0.00 0.00 0.00 99 1019.1
20260906110529 66 0.0 0.0 0.00 0.00 0.00 99 1019.2
20260906105022 67 0.0 0.0 0.00 0.00 0.00 99 1019.1
20260906103534 66 0.0 0.0 0.00 0.00 0.00 99 1019.0
20260906102026 67 0.0 0.0 0.00 0.00 0.00 99 1018.8
20260906100517 67 0.0 0.0 0.00 0.00 0.00 99 1018.7
20260906095030 67 0.0 0.0 0.00 0.00 0.00 98 1018.8
20260906093521 67 0.0 0.0 0.00 0.00 0.00 98 1018.6
20260906092033 68 0.0 0.0 0.00 0.00 0.00 97 1018.5
20260906090525 68 0.0 0.0 0.00 0.00 0.00 97 1018.3
20260906085038 69 0.0 0.0 0.00 0.00 0.00 96 1018.4
20260906083530 69 0.0 0.0 0.00 0.00 0.00 96 1018.3
20260906082022 70 0.0 0.0 0.00 0.00 0.00 96 1018.1
20260906080535 69 0.0 0.0 0.00 0.00 0.00 97 1018.1
20260906075026 69 0.0 0.0 0.00 0.00 0.00 96 1017.9
20260906073518 70 0.0 0.0 0.00 0.00 0.00 96 1018.0
20260906072031 70 0.0 0.0 0.00 0.00 0.00 96 1018.2
20260906070522 71 0.0 0.0 0.00 0.00 0.00 95 1018.5
20260906065034 71 0.0 0.0 0.00 0.00 0.00 95 1018.4
20260906063526 70 0.0 0.0 0.00 0.00 0.00 96 1018.6
20260906062018 70 0.0 0.0 0.00 0.00 0.00 97 1018.5
20260906060530 70 0.0 0.0 0.00 0.00 0.00 96 1018.6
20260906055022 70 0.0 0.0 0.00 0.00 0.00 96 1018.5
20260906053535 70 0.0 0.0 0.00 0.00 0.00 95 1018.5
20260906052027 71 0.0 0.0 0.00 0.00 0.00 95 1018.5
20260906050539 71 0.0 0.0 0.00 0.00 0.00 94 1018.6
20260906045031 72 0.0 0.0 0.00 0.00 0.00 93 1018.8
20260906043523 72 0.0 0.0 0.00 0.00 0.00 93 1018.8
20260906042035 73 0.0 0.0 0.00 0.00 0.00 92 1018.8
20260906040547 73 0.0 0.0 0.00 0.00 0.00 92 1018.9
20260906035019 73 0.0 0.0 0.00 0.00 0.00 92 1018.8
20260906033552 73 0.0 0.0 0.00 0.00 0.00 91 1018.9
20260906032024 73 0.0 0.0 0.00 0.00 0.00 90 1018.9
20260906030516 74 0.0 0.0 0.00 0.00 0.00 90 1018.9
20260906025052 74 0.0 0.0 0.00 0.00 0.00 88 1018.7
20260906023521 75 0.0 0.0 0.00 0.00 0.00 87 1019.0
20260906022034 74 0.0 0.0 0.00 0.00 0.00 87 1018.9
20260906020546 74 0.0 0.0 0.00 0.00 0.00 88 1018.4
20260906015038 75 0.0 0.0 0.00 0.00 0.00 86 1017.9
20260906014514 75 0.0 0.0 0.00 0.00 0.00 85 1016.4
20260906013530 75 0.0 0.0 0.00 0.00 0.00 85 1017.4
20260906012023 76 0.0 0.0 0.00 0.00 0.00 83 1017.0
20260906010535 77 0.0 0.0 0.00 0.00 0.00 81 1016.7
20260906005027 78 0.0 0.0 0.00 0.00 0.00 79 1016.5
20260906003519 80 0.0 0.0 0.00 0.00 0.00 75 1016.3
20260906002111 81 0.0 0.0 0.00 0.00 0.00 71 1016.3
20260906000523 82 0.0 0.0 0.00 0.00 0.00 70 1016.2
20260905235035 83 0.0 0.0 0.00 0.00 0.00 68 1016.1
20260905233529 84 0.0 0.0 0.00 0.00 0.00 67 1016.2
20260905232019 84 32 0.0 0.9 0.00 0.00 0.00 66 1016.3
20260905230551 84 82 0.0 5.2 0.00 0.00 0.00 66 1016.1
20260905225022 84 0.0 0.0 0.00 0.00 0.00 67 1016.0
20260905223533 84 48 0.9 8.7 0.00 0.00 0.00 66 1015.7
20260905222024 84 55 0.9 3.5 0.00 0.00 0.00 67 1015.9
20260905220536 84 61 1.7 7.0 0.00 0.00 0.00 66 1015.5
20260905215026 85 92 0.0 3.5 0.00 0.00 0.00 67 1015.6
20260905213518 85 56 0.0 3.5 0.00 0.00 0.00 69 1015.8
20260905212029 84 70 0.9 3.5 0.00 0.00 0.00 70 1016.0
20260905210521 83 43 1.7 6.1 0.00 0.00 0.00 70 1016.2
20260905205033 83 127 0.0 5.2 0.00 0.00 0.00 73 1016.5
20260905203525 82 37 1.7 6.1 0.00 0.00 0.00 74 1016.8
20260905202017 82 54 0.9 6.1 0.00 0.00 0.00 75 1016.9
20260905200529 80 43 0.9 6.1 0.00 0.00 0.00 80 1017.2
20260905195021 80 60 0.0 5.2 0.00 0.00 0.00 82 1017.6
20260905193533 79 83 0.0 5.2 0.00 0.00 0.00 83 1017.6
20260905192025 79 0.0 0.0 0.00 0.00 0.00 82 1017.7
20260905190556 77 83 0.0 3.5 0.00 0.00 0.00 85 1017.9
20260905185029 78 163 0.0 0.9 0.00 0.00 0.00 83 1018.2
20260905183520 75 176 0.0 0.9 0.00 0.00 0.00 87 1018.3
20260905182033 73 0.0 0.0 0.00 0.00 0.00 90 1018.8
20260905180525 73 0.0 0.0 0.00 0.00 0.00 90 1018.8
20260905175018 72 61 0.0 0.9 0.00 0.00 0.00 92 1018.9